Date,TemperatureHighF,TemperatureAvgF,TemperatureLowF,DewpointHighF,DewpointAvgF,DewpointLowF,HumidityHigh,HumidityAvg,HumidityLow,PressureMaxIn,PressureMinIn,WindSpeedMaxMPH,WindSpeedAvgMPH,GustSpeedMaxMPH,PrecipitationSumIn
2013-2-1,43.0,31.4,25.0,35.0,19.4,14.0,83,62,38,30.51,30.20,7,2,0,0.00
2013-2-2,44.0,33.9,24.0,39.0,28.7,20.0,98,82,62,30.40,30.17,4,1,0,0.06
2013-2-3,56.0,42.0,30.0,43.0,32.3,27.0,99,73,37,30.22,30.09,7,2,0,0.01
2013-2-4,53.0,41.0,30.0,38.0,32.6,28.0,94,74,40,30.17,29.98,4,1,0,0.00
2013-2-5,64.0,50.4,40.0,49.0,43.5,37.0,96,78,48,30.09,29.94,5,1,0,0.01
2013-2-6,66.0,47.9,37.0,49.0,40.3,36.0,99,79,37,30.23,30.09,3,0,0,0.00
2013-2-7,59.0,51.6,46.0,50.0,46.8,42.0,94,84,68,30.12,29.95,6,1,0,0.03
2013-2-8,50.0,45.3,36.0,48.0,41.7,31.0,98,87,74,30.31,29.93,10,3,0,0.32
2013-2-9,61.0,44.8,32.0,39.0,33.8,29.0,89,68,34,30.38,30.18,6,2,0,0.00
2013-2-10,60.0,53.2,50.0,58.0,45.1,35.0,96,76,52,30.21,29.93,9,4,0,0.52
2013-2-11,60.0,52.8,45.0,59.0,48.9,42.0,99,87,63,30.21,29.96,3,0,0,0.03
2013-2-12,52.0,45.8,41.0,43.0,38.9,34.0,94,79,51,30.19,29.80,4,1,0,0.18
2013-2-13,47.0,43.5,36.0,45.0,40.9,34.0,98,91,81,30.07,29.72,5,2,0,0.15
2013-2-14,59.0,43.7,31.0,43.0,37.3,30.0,98,80,46,30.15,30.03,6,1,0,0.00
2013-2-15,57.0,43.6,32.0,44.0,36.2,30.0,99,77,52,30.17,30.07,7,2,0,0.00
2013-2-16,41.0,34.9,27.0,30.0,20.9,15.0,76,57,40,30.27,30.13,8,3,0,0.00
2013-2-17,48.0,33.4,19.0,26.0,20.2,15.0,87,61,33,30.38,30.24,5,1,0,0.00
2013-2-18,62.0,47.6,30.0,43.0,32.5,23.0,86,58,40,30.33,29.93,13,3,0,0.17
2013-2-19,53.0,46.2,32.0,48.0,33.8,19.0,97,66,30,30.27,29.94,6,2,0,0.49
2013-2-20,38.0,33.9,26.0,25.0,21.8,19.0,91,62,46,30.34,30.22,8,2,0,0.00
2013-2-21,57.0,43.4,32.0,46.0,31.3,21.0,96,66,31,30.24,29.86,10,3,0,0.54
2013-2-22,52.0,49.3,46.0,49.0,47.0,45.0,96,92,87,30.10,29.95,7,3,0,0.57
2013-2-23,52.0,46.2,36.0,47.0,44.1,35.0,98,93,80,30.05,29.90,3,1,0,0.11
2013-2-24,59.0,44.0,31.0,38.0,33.4,30.0,98,70,35,30.13,29.98,6,2,0,0.00
2013-2-25,61.0,48.5,37.0,46.0,38.8,31.0,93,71,48,29.98,29.55,12,4,0,0.10
2013-2-26,50.0,45.7,41.0,46.0,41.3,36.0,97,85,66,29.83,29.47,11,6,0,0.20
2013-2-27,55.0,45.6,41.0,40.0,35.9,33.0,78,69,54,29.97,29.82,7,3,0,0.02
2013-2-28,43.0,39.2,36.0,36.0,30.1,27.0,80,70,63,30.11,29.92,5,2,0,0.00